Theta_e
313 312 312 313 314 311 308 306 305 305 305 305 305 304 305 304 304 305 304 304 306 309 313 318 322 325 332 332 333 334 334 337 337 339 338 336 335 333 325 325 328 328 328
313 312 312 312 313 313 309 306 305 305 305 306 305 304 304 304 303 303 303 303 303 303 303 306 310 314 319 327 330 330 331 334 336 336 337 338 337 335 332 329 331 330 327
312 312 312 312 312 313 310 307 305 304 305 304 306 305 305 303 303 303 302 302 302 302 302 302 302 302 303 306 313 319 324 328 333 334 335 336 337 337 335 332 330 330 327
312 312 312 312 312 312 311 307 305 304 304 305 307 307 306 305 304 303 302 301 301 301 301 302 302 302 302 302 303 303 303 304 315 330 332 332 335 337 336 336 332 329 328
311 311 311 311 312 312 311 308 305 304 306 306 305 305 306 305 305 305 304 302 302 301 301 301 302 302 302 302 303 303 303 303 303 303 314 330 332 333 336 336 336 332 330
314 313 311 311 311 311 311 309 305 305 304 304 303 305 306 305 303 304 305 305 305 303 301 301 301 301 301 302 301 302 303 303 303 303 303 303 318 330 334 336 336 336 333
314 316 311 310 311 311 311 308 305 305 304 304 303 307 307 306 305 305 306 305 304 304 303 302 302 302 301 302 300 301 301 302 303 303 303 302 302 308 330 334 335 336 335
316 316 312 310 310 311 310 309 306 304 305 304 305 305 308 308 306 305 305 304 304 304 303 304 303 303 302 302 302 301 300 300 301 303 304 303 303 302 304 330 334 334 335
316 315 312 310 310 310 310 309 306 303 305 306 302 304 307 309 307 305 305 305 304 304 304 304 303 303 303 303 303 303 303 299 299 300 302 305 304 303 303 303 321 333 334
316 315 311 310 309 310 309 309 306 304 301 305 304 302 302 303 305 305 305 305 304 303 303 303 303 303 303 303 303 303 301 299 299 299 300 302 304 305 304 303 303 314 331
316 315 311 310 309 309 309 308 306 304 302 302 305 305 304 304 304 304 304 305 304 303 303 302 302 303 303 303 303 303 303 302 300 298 298 299 302 304 305 305 304 304 311
316 314 312 309 309 309 309 308 306 303 303 302 304 304 304 304 304 304 303 303 302 302 302 302 302 303 303 303 303 303 303 304 304 302 299 298 299 307 307 305 305 306 306
315 315 312 310 309 309 309 307 305 303 302 302 303 304 303 303 303 303 302 302 302 301 302 302 302 302 303 303 303 303 303 303 303 302 304 301 304 307 309 309 306 305 311
316 316 313 310 309 309 308 307 304 302 302 302 303 303 303 303 302 302 302 301 301 301 301 302 302 302 303 303 303 303 302 303 303 304 304 305 305 306 310 308 307 305 310
313 315 313 310 309 308 308 306 303 302 301 303 303 302 303 302 302 302 301 301 301 301 301 301 302 303 303 303 303 303 303 303 303 304 304 304 306 307 307 308 309 306 307
311 313 312 310 308 307 307 305 303 302 302 303 303 303 303 302 301 301 301 301 301 301 302 302 303 303 303 303 303 302 302 302 303 303 304 304 306 307 307 308 309 307 305
311 310 312 310 309 307 306 305 303 302 302 303 303 302 302 301 301 300 300 300 301 302 303 303 303 303 302 302 302 302 303 303 303 303 304 304 305 306 306 307 307 307 305
311 309 310 310 309 307 306 304 303 303 302 302 302 301 301 301 300 300 300 301 302 303 303 302 302 302 302 301 302 302 301 303 304 303 304 305 306 306 306 306 306 307 306
310 308 308 309 308 307 305 304 303 302 302 302 302 301 301 301 300 300 301 302 302 302 302 302 302 302 302 302 302 301 301 302 303 303 305 305 306 307 307 306 306 307 307
310 308 307 308 308 307 305 303 302 302 302 301 301 301 300 300 300 301 302 302 302 302 301 301 301 300 301 301 302 302 304 303 303 304 305 305 307 307 306 306 307 306 307
309 308 307 307 307 306 304 303 302 301 301 301 301 300 299 300 301 302 302 301 301 301 301 300 301 300 301 301 302 303 303 303 304 304 304 305 307 307 306 307 307 307 306
308 307 306 306 306 304 304 302 301 300 300 300 301 300 300 301 302 302 301 301 301 301 300 300 301 300 301 302 302 302 303 303 304 304 305 305 308 307 307 306 306 306 306
308 307 306 305 304 304 303 302 300 299 300 301 300 301 301 301 301 300 300 301 300 301 301 302 301 302 302 302 302 303 304 305 305 305 305 305 307 308 307 307 307 304 303
307 306 305 304 304 303 302 301 299 298 300 301 301 301 301 301 301 300 300 300 301 301 301 301 302 302 302 302 304 304 304 304 306 307 307 307 309 309 308 307 306 307 313
307 306 305 304 303 302 302 301 299 297 299 301 301 301 301 301 301 300 300 300 301 301 300 301 301 301 303 303 304 304 305 308 310 309 309 309 310 309 309 308 312 315 314
306 305 304 303 302 302 302 300 299 299 301 301 301 300 300 300 299 298 299 301 301 300 300 298 300 302 303 305 307 308 311 311 312 310 309 310 311 309 312 317 320 316 317
Wind_Speed
11 9 8 8 9 8 7 7 6 5 4 4 4 4 4 5 6 8 14 10 11 13 14 16 16 16 16 16 16 14 11 10 12 14 12 11 12 12 12 13 12 13 14
14 12 10 9 9 8 8 6 6 6 5 4 7 7 6 6 7 8 10 13 11 12 13 15 17 17 18 20 21 20 18 16 12 14 17 16 15 14 14 14 14 16 16
17 15 12 11 10 9 7 7 6 6 7 6 5 6 9 7 8 9 10 10 13 12 12 14 14 15 16 17 20 21 21 20 20 20 17 19 20 19 17 16 17 16 18
21 18 16 14 13 12 11 10 9 7 7 6 4 7 7 10 8 9 12 10 11 12 13 12 13 14 15 16 17 18 19 20 22 23 24 23 20 22 21 20 19 18 18
25 22 20 18 16 14 12 11 10 8 8 8 7 7 8 10 9 9 11 12 13 13 13 14 13 15 16 17 18 19 21 21 21 22 25 26 25 24 25 25 25 22 20
29 25 24 22 19 17 14 13 11 10 9 10 8 8 8 11 11 11 10 10 11 18 16 16 17 16 19 18 16 17 18 20 22 22 23 24 28 27 26 28 27 28 24
34 30 29 25 22 19 16 14 12 12 10 9 8 6 8 9 9 9 9 7 10 13 15 15 17 16 18 20 23 21 17 20 22 23 23 23 24 28 30 26 33 30 29
36 33 32 28 25 21 19 17 16 13 10 12 6 6 2 7 6 8 9 8 7 11 12 13 14 16 19 20 20 23 23 21 22 22 23 24 24 24 29 32 30 32 34
37 35 34 30 26 23 21 19 18 16 12 12 9 7 4 4 5 8 10 8 10 10 13 14 15 17 17 17 20 19 22 25 26 26 25 24 25 25 23 30 38 28 33
39 38 34 31 28 25 23 21 19 18 17 13 11 10 10 9 4 5 6 8 12 12 13 16 15 17 19 19 20 21 24 27 27 27 28 28 27 27 28 26 27 35 29
41 39 35 33 30 28 24 22 20 19 17 15 14 9 9 8 8 9 13 9 13 14 14 17 18 18 18 20 23 22 21 27 29 27 28 30 31 29 27 28 29 28 37
44 42 37 36 33 30 27 25 23 20 19 16 14 13 11 9 8 10 15 18 18 20 18 16 17 19 22 23 22 22 25 22 23 26 27 29 30 26 27 27 30 32 31
48 45 41 39 36 33 30 27 25 23 20 18 16 13 11 11 11 11 13 19 22 22 19 20 20 20 20 22 25 26 27 27 29 30 28 28 27 24 23 23 27 30 26
50 46 44 40 37 34 31 29 26 24 21 20 19 16 14 12 13 13 14 16 22 24 22 22 21 21 22 23 25 30 32 30 28 30 29 28 28 26 24 23 27 30 25
43 46 43 42 37 33 31 29 27 24 22 19 17 17 16 14 13 14 15 16 19 25 23 21 23 22 23 26 27 30 31 33 32 32 32 33 31 29 29 28 26 27 29
39 44 44 41 38 34 31 29 27 23 21 20 17 15 14 13 13 16 18 18 19 23 28 23 24 25 25 28 29 31 32 34 35 33 30 34 33 31 31 31 29 27 30
38 43 44 41 38 35 31 29 27 24 22 19 18 17 16 15 17 17 17 18 20 21 27 28 27 28 29 31 31 31 31 33 35 32 34 33 34 35 32 30 30 29 32
37 40 43 40 38 36 33 30 27 22 22 22 19 17 16 14 17 17 17 18 20 21 25 31 30 29 29 32 32 34 33 31 32 39 37 36 35 33 31 32 33 31 28
37 39 42 40 38 36 34 31 27 24 22 20 18 17 16 16 17 16 17 19 21 22 25 29 34 31 32 31 32 34 35 34 36 42 35 35 35 31 33 34 35 30 29
38 39 40 41 38 36 34 31 27 24 21 19 18 18 16 16 16 16 17 19 19 22 26 28 30 34 29 34 32 34 33 36 43 42 36 38 33 33 32 33 32 31 30
38 38 39 40 38 36 34 32 29 26 22 19 18 16 16 16 16 18 18 19 19 22 25 29 29 34 33 34 31 35 42 48 47 42 43 36 29 29 28 29 33 32 37
37 38 38 38 37 36 33 32 30 26 22 19 18 16 14 16 17 16 17 19 20 22 25 27 30 34 38 37 43 45 46 47 47 43 29 35 26 30 25 28 26 32 39
37 37 37 36 37 35 33 32 28 22 20 17 15 14 13 13 17 15 16 17 19 19 23 29 34 35 37 41 49 53 49 46 44 47 43 40 26 29 26 24 26 30 34
37 37 36 35 34 32 33 29 26 24 18 15 14 14 15 14 14 15 15 17 19 20 24 26 29 34 40 45 45 47 48 45 43 37 28 30 22 26 22 25 29 38 27
36 35 35 34 35 33 30 27 25 25 19 15 14 14 14 13 13 13 13 18 21 23 23 24 31 33 34 40 37 36 34 31 26 19 15 21 19 20 21 28 25 33 39
36 35 34 35 33 29 29 27 25 20 14 13 13 12 15 16 14 13 14 16 22 24 27 32 31 33 38 36 30 23 22 23 13 12 9 14 15 18 11 20 30 45 51
Wind_Direction
241 257 281 300 310 308 300 303 307 316 315 303 293 281 275 278 263 262 282 286 277 270 266 264 262 262 260 266 264 266 271 284 258 257 263 283 297 303 288 276 276 290 290
236 248 264 280 293 295 290 286 283 287 299 300 304 300 289 288 283 280 276 290 279 275 273 272 270 267 263 260 264 268 268 259 270 271 261 259 269 284 290 284 279 279 286
234 242 252 267 275 282 274 268 266 277 282 293 299 295 306 293 290 289 278 277 288 277 274 274 274 273 271 268 266 267 265 260 257 255 266 264 261 261 270 280 279 275 279
234 238 246 254 262 267 269 264 264 260 261 267 273 280 293 301 284 280 285 277 277 274 282 273 277 278 276 275 275 274 273 268 259 255 253 254 261 257 256 265 272 273 273
234 238 243 249 255 260 262 255 256 244 256 271 279 275 277 275 274 265 276 290 292 277 279 282 275 277 277 277 279 278 277 276 272 268 258 256 256 257 255 254 261 267 268
236 237 242 246 249 252 251 251 245 254 241 257 271 270 265 276 272 256 255 260 273 291 295 293 297 299 294 285 282 283 283 281 279 276 269 261 254 252 253 251 245 254 261
237 238 239 240 243 246 248 246 239 239 258 258 276 282 279 265 257 260 259 266 273 284 293 302 303 298 299 296 299 291 287 284 282 281 279 274 262 251 246 247 253 244 252
237 237 237 236 239 240 240 242 237 237 231 249 232 262 264 255 268 251 238 261 280 276 284 294 292 293 292 294 297 298 294 287 282 281 277 272 273 263 250 245 248 249 245
234 235 234 231 235 236 238 240 239 235 236 250 238 218 234 229 257 252 250 249 271 292 291 281 289 294 293 290 288 296 293 297 291 286 282 278 270 268 263 255 246 241 245
230 232 230 230 231 233 234 238 235 237 227 231 250 235 229 235 240 273 241 257 278 282 286 296 293 290 290 290 284 283 289 286 281 282 285 281 273 266 263 259 258 244 238
227 230 226 227 227 231 231 231 228 229 233 223 229 229 234 237 241 252 281 281 282 290 285 282 290 288 289 288 291 287 285 281 285 281 278 279 279 274 266 263 262 256 245
226 227 226 226 226 228 228 229 229 227 228 226 222 225 224 231 240 253 271 283 287 289 291 290 290 286 287 290 288 287 287 285 284 285 281 277 280 282 275 264 261 261 256
226 226 226 223 225 226 227 227 228 227 226 225 222 224 234 243 251 258 268 281 291 293 294 290 292 293 293 293 293 292 292 290 291 293 290 283 280 281 279 271 257 257 260
236 231 227 224 224 225 225 226 226 226 226 226 224 224 227 238 249 258 267 279 289 290 293 297 297 297 294 291 286 286 291 296 294 288 286 285 284 282 275 272 266 251 255
226 233 228 224 221 221 222 222 222 225 224 222 227 230 232 242 252 258 262 269 275 286 288 290 291 287 286 284 283 283 284 285 285 283 283 282 280 279 278 269 264 258 249
216 230 226 222 218 218 220 218 220 221 222 219 220 225 233 241 252 258 264 267 269 274 283 287 289 290 290 291 290 288 286 285 282 283 284 285 279 276 275 270 264 256 250
213 219 224 217 215 216 216 214 217 216 214 218 222 226 233 243 254 261 264 265 270 274 281 287 289 291 292 290 291 289 290 289 284 281 287 289 279 278 278 263 260 254 252
213 212 219 214 214 213 214 212 212 210 211 214 221 229 240 248 259 267 271 272 274 279 282 289 292 294 289 292 289 291 292 289 282 288 291 283 276 276 271 261 259 252 251
212 206 211 209 210 212 213 211 211 207 211 215 221 226 238 248 258 264 267 272 276 278 283 287 292 293 296 295 295 291 290 286 281 300 290 293 289 274 263 256 251 247 240
211 205 205 209 211 212 212 208 204 206 211 216 220 229 239 250 259 263 268 273 278 283 286 290 288 294 295 296 297 293 290 287 294 302 296 295 282 278 260 245 239 235 223
211 205 200 206 208 210 208 204 203 206 207 215 224 232 251 260 257 256 265 272 278 284 285 293 295 298 300 301 295 294 292 299 301 301 295 298 280 273 251 238 229 222 205
211 204 199 199 200 202 205 204 208 210 211 213 223 235 247 260 268 271 275 277 280 284 287 293 295 295 298 295 298 298 295 292 288 296 279 288 283 267 246 231 221 212 204
209 204 199 195 197 203 200 204 208 212 210 216 225 239 248 255 263 273 280 283 287 286 288 293 294 296 296 295 299 302 297 292 287 286 282 280 277 249 241 230 212 207 206
207 204 197 194 193 194 202 206 204 209 209 216 226 236 247 254 263 269 277 286 291 294 298 298 297 294 292 299 300 298 295 292 291 292 277 263 254 245 234 230 205 199 201
206 203 196 192 191 193 204 201 202 208 211 220 230 241 249 258 267 273 280 291 303 303 306 299 291 302 304 305 305 306 302 302 295 288 243 232 234 213 202 203 209 189 183
204 198 193 190 191 192 202 199 202 201 202 215 232 245 264 281 286 266 282 295 299 308 302 312 318 312 321 324 327 328 332 321 289 284 228 217 214 187 183 141 166 176 177